Location: Ab? ar R?sh Ba?r?
(24.1861°N, 32.8847°E)
Time: 00:22:04
(UTC+00:00)

Meteor 2-10 Rocket - Pass Details

Date: 24 October 2021
Orbit: 733 x 885 km, 81.2° (Epoch: 05 December)

Event Time Altitude Azimuth Distance (km) Brightness Sun altitude
Rises 15:40:07 0° 171° (S) 3,446 6.9 -6.6°
Reaches altitude 10° 15:42:40 10° 165° (SSE) 2,496 6.1 -7.1°
Maximum altitude 15:48:03 45° 94° (E) 1,130 4.0 -8.3°
Drops below altitude 10° 15:53:15 10° 22° (NNE) 2,418 5.8 -9.5°
Sets 15:55:41 0° 16° (NNE) 3,328 6.5 -10.1°
